7 * 24
多渠道服务支持
SJ-9B是中国于2012年10月14日8时发射的实践系列卫星。实践系列卫星多承担空间科学实验、技术验证任务,SJ-9B入轨后开展相关空间环境探测与航天技术试验,为中国后续航天器研发、空间科学研究积累了关键数据,助力中国航天技术迭代升级,推动了航天领域相关应用的发展进步。
中国
(CN)
| 数据来源 | 国际轨道数据 | AOE轨道数据 |
| 星历时间 | 2026-09-10T20:25:14+0800 1天前 查看轨道信息 | 2026-09-10T13:00:00+0800 1天前 查看轨道信息 |
| 半长轴 | 6971.128km | 6971.099km |
| 偏心率 | 0.0013705 | 0.0013427 |
| 轨道倾角 | 97.608° | 97.610° |
| 近地点辐角 | 293.977° | 294.910° |
| 升交点赤经 | 234.570° | 234.273° |
| 平近点角 | 66.002° | 205.827° |
| 近地点 | 583.437km | 583.601km |
| 远地点 | 602.545km | 602.323km |
| 周期 | 96.542分钟 | 96.541分钟 |
| 每日圈数 | 14.915859 | 14.915951 |
| 事件ID | 空间交会对象 | 最接近时刻(TCA) | 交会距离 | 交会风险概率(CRP) | 交会风险指数(CRI) | 操作 |
|---|---|---|---|---|---|---|
| CDM_260913-074402-228603-886125 |
COSMOS 2228
(22286)
SJ-9B
(38861) | 2026-09-13T 07:44:51+0000 |
1.982 km
极远距离 | 2.966958E-6 低风险 | 0.44 |